Regional Weather Roundup
Issued by NWS Burlington, VT

Home | Current Version | Previous Version | Text Only | Print | Product List | Glossary On
Versions: 1 2 3 4 5 6 7 8 9 10 11 12 13 14 15 16 17 18 19 20 21 22 23 24 25 26 27 28 29 30 31 32 33 34 35 36 37 38 39 40 41 42 43 44 45 46 47 48 49 50
000
ASUS41 KBTV 060730
RWRBTV
VERMONT REGIONAL WEATHER ROUNDUP
NATIONAL WEATHER SERVICE BURLINGTON VT
200 AM EST SAT FEB 06 2016

NOTE: "FAIR" INDICATES FEW OR NO CLOUDS BELOW 12,000 FEET WITH NO
SIGNIFICANT WEATHER AND/OR OBSTRUCTIONS TO VISIBILITY.

* THESE REPORTS ARE NOT UNDER NWS QUALITY CONTROL AND/OR DO NOT
  REPORT WEATHER SUCH AS PRECIPITATION AND FOG.

VTZ001>019-060800-
_____VERMONT_____


CITY           SKY/WX    TMP DP  RH WIND       PRES   REMARKS
BURLINGTON     MOCLDY    20  14  77 E3        30.24S
MONTPELIER     FAIR      14  10  84 S5        30.23S WCI   6
MORRISVILLE    FAIR      18  12  77 CALM      30.22S
ST. JOHNSBURY*   N/A     18  12  77 MISG      30.21R
LYNDONVILLE*   FAIR      17  10  71 CALM      30.20S
RUTLAND*       FAIR      18  12  79 SE8       30.24S WCI   7
SPRINGFIELD    FAIR      19  11  70 S3        30.25R
HIGHGATE*      CLOUDY    22  16  75 S3        30.22S
NEWPORT*       FAIR      19  11  71 CALM      30.20S
BENNINGTON     FAIR      17  14  88 CALM      30.26R
SUTTON*          N/A     12 N/A N/A MISG        N/A
MT. MANSFIELD*   N/A     10 N/A N/A NW31        N/A  WCI -12

_____LAKE CHAMPLAIN_____


CITY           SKY/WX    TMP DP  RH WIND       PRES   REMARKS
COLCHESTER RF*   N/A     30  23  74 S14         N/A  WCI  20
DIAMOND ISL*     N/A     27  19  74 SE8         N/A  WCI  18

$$

NYZ007-026>031-035-052-083-060800-
_____NORTHERN NEW YORK_____


CITY           SKY/WX    TMP DP  RH WIND       PRES   REMARKS
PLATTSBURGH    CLOUDY    25  14  63 S3        30.23S
SARANAC LAKE   CLOUDY    18  14  84 SW5       30.14S WCI  11
MASSENA        CLOUDY    28  20  71 SW9       30.22S WCI  19
OGDENSBURG*    MOCLDY    30  27  86 SW8       30.21S WCI  23
POTSDAM*       CLOUDY    28  25  86 SW7       30.21S WCI  21
WATERTOWN      CLOUDY    32  28  85 SW12      30.24S WCI  23
ALBANY         CLEAR     20  13  74 CALM      30.31S
GLENS FALLS    CLEAR     19  13  77 CALM      30.28S

$$
NHZ002-005-011-060800-
_____NEW HAMPSHIRE_____


CITY           SKY/WX    TMP DP  RH WIND       PRES   REMARKS
LEBANON        CLEAR     18  13  80 CALM      30.25R
MT WASHINGTON  BLWGSNOW  -4  -4 100 W63         N/A  VSB 1/16WCI -40
PLYMOUTH       FAIR      19  13  80 CALM      30.24R
WHITEFIELD     CLEAR     15   9  76 SW5       30.19R WCI   8

$$

_____REGIONAL QUEBEC LOCATIONS_____


CITY           SKY/WX    TMP DP  RH WIND       PRES   REMARKS
MONTREAL       MOCLDY    25  16  68 SW10      30.20S WCI  15
QUEBEC CITY    MOCLDY     7   1  78 VRB2      30.17R
SHERBROOKE     PTCLDY    10   9  92 SW3       30.18R

_____REGIONAL ONTARIO LOCATIONS_____


CITY           SKY/WX    TMP DP  RH WIND       PRES   REMARKS
OTTAWA         MOCLDY    25  18  74 S7        30.17F WCI  17

______KEY______
VSB  - VISIBILITY IN MILES
WCI  - WIND CHILL INDEX
HX   - HEAT INDEX
$$
NNNN



USA.gov is the U.S. government's official web portal to all federal, state and local government web resources and services.